Location: Beetenbrück
(52.8113°N, 9.5946°E)
Time: 21:17:15
(UTC+00:00)

NOSS 8 (A) - Pass Details

Date: 14 April 2026
Orbit: 358 x 1348 km, 63.3° (Epoch: 12 May)

Event Time Altitude Azimuth Distance (km) Brightness Sun altitude
Rises 20:31:43 0° 311° (NW) 2,210 9.7 -17.8°
Reaches altitude 10° 20:33:42 10° 309° (NW) 1,347 8.1 -18.0°
Maximum altitude 20:36:33 67° 227° (SW) 405 4.1 -18.3°
Enters shadow 20:36:39 66° 209° (SSW) 408 4.0 -18.3°
